www.pogodaiklimat.ru

Погода и климат >> Архив погоды >> Германия >> Аркона


ПОГОДА в Арконе

  • Прогноз погоды в Арконе
  • Монитор погоды в Арконе

АРХИВ ПОГОДЫ в Арконе

Время (UTC), дата Ветер
(напр.,м/с)
 
Видим.   Явления Облачность Т
(С)
Тd
(С)
f
(%)
Тe
(С)
Тes
(С)
Комфортность P
(гПа)
Po
(гПа)
Тmin
(С)
Tmax
(С)
R
(мм)
R24
(мм)
S
(см)
16 10.07 З 10 50 км 9/0
[]
+18.8 1014.6 1009.7
17 10.07 З 7 45 км 10/0
[]
+18.6 1014.9 1010.0
18 10.07 З 6 55 км 10/0
[]
+17.5 1014.7 1009.8 +15.3 +19.2
19 10.07 З 6-9
{9}
>70 км 10/0
[]
+17.4 1014.5 1009.6
20 10.07 З 6 60 км 10/0
[]
+16.3 1014.7 1009.7
21 10.07 З 5 55 км 10/0
[]
+16.0 1014.7 1009.7
22 10.07 З 5 55 км 10/0
[]
+15.5 1014.8 1009.8
23 10.07 З 5-6
{7}
60 км 9/0
[]
+15.2 1014.6 1009.6
00 11.07 З 5 45 км ясно +14.6 1014.4 1009.4
01 11.07 З 4-6
{7}
40 км ясно +14.8 1014.2 1009.2
02 11.07 З 4-7
{7}
40 км ясно +14.6 1013.8 1008.8
03 11.07 СЗ 5-7
{8}
40 км ясно +14.6 1013.6 1008.6
04 11.07 СЗ 5-7
{8}
45 км ясно +14.8 1013.7 1008.7
05 11.07 СЗ 4-6
{8}
40 км 1/0
[]
+15.3 1013.7 1008.7
06 11.07 СЗ 5 35 км ясно +16.0 1013.6 1008.7 +14.5 +17.7
07 11.07 СЗ 4-6
{7}
35 км ясно +16.2 1013.6 1008.7
08 11.07 СЗ 4-5
{7}
40 км ясно +16.9 1013.6 1008.7
09 11.07 З 5 45 км ясно +16.6 1013.7 1008.8
10 11.07 З 5-7
{7}
65 км ясно +17.5 1013.7 1008.8
11 11.07 З 5-7
{8}
35 км ясно +17.8 1013.6 1008.7
12 11.07 З 5-7
{8}
40 км ясно +17.9 1013.3 1008.4
13 11.07 СЗ 4-6
{7}
50 км ясно +18.2 1013.2 1008.3
14 11.07 СЗ 4-5
{6}
60 км ясно +17.9 1012.9 1008.0
15 11.07 СЗ 4-6
{7}
40 км ясно +18.0 1012.5 1007.6
16 11.07 СЗ 4-5
{6}
35 км ясно +18.0 1012.2 1007.3
17 11.07 СЗ 3-4
{5}
55 км ясно +18.1 1012.0 1007.1
18 11.07 СЗ 2 >70 км ясно +18.6 1011.9 1007.0 +15.8 +19.0
19 11.07 З 2-2
{4}
>70 км 8/0
[]
+17.4 1011.8 1006.9
20 11.07 З 2-2
{2}
65 км 9/0
[]
+15.9 1011.8 1006.9
21 11.07 Ю 3 60 км 10/0
[]
+15.6 1011.9 1006.9
22 11.07 Ю 4 50 км 10/0
[]
+15.5 1011.9 1006.9
23 11.07 ЮЗ 3 60 км 10/0
[]
+14.9 1011.6 1006.6
00 12.07 ЮЗ 3 65 км 10/0
[]
+14.8 1011.4 1006.4
01 12.07 ЮЗ 4-4
{4}
55 км 10/0
[]
+14.5 1011.3 1006.3
02 12.07 ЮЗ 3 60 км 10/10 1500 м
[]
+15.4 1010.9 1006.0
03 12.07 ЮЗ 3 55 км 10/0 2000 м
[]
+15.1 1010.9 1005.9
04 12.07 ЮЗ 2 50 км 10/10 1500 м
[]
+15.4 1010.8 1005.9
05 12.07 ЮЗ 2 65 км 10/0 2000 м
[]
+16.2 1010.8 1005.9
06 12.07 З 1 55 км 10/10 1500 м
[]
+17.6 1010.8 1005.9 +14.4 +18.6
07 12.07 В 1 55 км 10/0
[]
+18.1 1010.9 1006.0
08 12.07 С 1 >70 км 10/0
[]
+19.5 1010.9 1006.0
09 12.07 С 2 35 км 10/0
[]
+19.7 1010.9 1006.0
10 12.07 С 2 19 км 10/0 2000 м
[]
+18.4 1010.9 1006.0
11 12.07 СВ 4 35 км 10/0
[]
+20.4 1010.9 1006.0
12 12.07 СВ 4 24 км 9/0
[]
+19.7 1010.6 1005.7
13 12.07 В 4 28 км 6/0
[]
+19.0 1010.5 1005.6
14 12.07 В 3-4
{6}
30 км ясно +19.3 1010.5 1005.6
15 12.07 В 3-3
{6}
25 км ясно +19.5 1010.4 1005.5
16 12.07 В 3-4
{4}
29 км ясно +19.2 1010.1 1005.2
17 12.07 В 2-5
{5}
24 км ясно +18.7 1010.0 1005.1
18 12.07 В 3 35 км ясно +18.1 1010.3 1005.4 +17.4 +21.0
19 12.07 В 1-3
{5}
45 км ясно +17.1 1010.7 1005.8
20 12.07 В 2-3
{3}
40 км 9/0
[]
+16.2 1010.9 1006.0
21 12.07 СВ 3 35 км 10/0 2000 м
[]
+15.9 1011.1 1006.2
22 12.07 СВ 2 15 км 10/0
[]
+15.8 1011.1 1006.2
23 12.07 В 3 21 км 10/0
[]
+15.9 1011.1 1006.2
00 13.07 СВ 2 17 км 10/10 100 м
[]
+16.2 1011.0 1006.1
01 13.07 СВ 1 13 км 9/9 180 м
[]
+16.2 1010.9 1006.0
02 13.07 СВ 2 17 км 10/10 150 м
[]
+15.3 1011.2 1006.3
03 13.07 В 2 26 км 10/0
[]
+15.0 1011.5 1006.5
04 13.07 СВ 2 н/о 9/0
[]
+15.2 1011.6 1006.7
05 13.07 С 2 30 км 10/0
[]
+16.1 1011.8 1006.9
06 13.07 С 2 35 км 3/0
[]
+18.7 1012.1 1007.2 +14.7 +19.1
07 13.07 СВ 3 50 км 5/0
[]
+19.5 1012.4 1007.5
08 13.07 СВ 3-4
{4}
45 км ясно +19.8 1012.7 1007.8
09 13.07 С 2 40 км 5/0 2000 м
[]
+18.9 1013.0 1008.1
10 13.07 С 4-5
{5}
55 км 8/0
[]
+19.7 1013.5 1008.6
11 13.07 СВ 4-5
{6}
50 км ясно +19.7 1013.7 1008.8
12 13.07 В 2 45 км 9/0
[]
+19.5 1013.3 1008.4
13 13.07 С 2 50 км 9/0
[]
+19.9 1013.4 1008.5
14 13.07 СЗ 4-6
{6}
40 км ясно +19.8 1013.2 1008.3
15 13.07 СЗ 4 >70 км 6/0
[]
+20.7 1013.3 1008.4
16 13.07 З 4-6
{8}
50 км 6/0
[]
+20.0 1013.1 1008.2
17 13.07 СЗ 4 35 км 9/0
[]
+19.6 1013.2 1008.3
18 13.07 З 4 50 км 9/0
[]
+19.1 1013.2 1008.3 +18.3 +21.1
19 13.07 З 4 50 км 10/10 1080 м
[]
+18.7 1013.6 1008.7
20 13.07 З 5 50 км 10/0
[]
+17.0 1013.9 1009.0
21 13.07 З 6 50 км 9/0
[]
+16.4 1013.7 1008.8
22 13.07 З 5 27 км 9/0
[]
+17.4 1013.8 1008.9
00 14.07 СЗ 4 40 км 10/0
[]
+17.6 1013.9 1009.0
01 14.07 СЗ 4 29 км 10/10 1170 м
[]
+17.5 1014.2 1009.3
02 14.07 СЗ 6 24 км 9/9 1230 м
[]
+16.8 +15.5 92 +16 +16 1014.1 1009.2
03 14.07 СЗ 5 18 км 10/10 180 м
[]
+16.2 1014.4 1009.5
04 14.07 СЗ 5-7
{8}
16 км 10/10 180 м
[]
+16.4 1014.5 1009.6
05 14.07 СЗ 5-7
{8}
15 км 10/10 120 м
[]
+16.3 1014.8 1009.9
06 14.07 СЗ 5 18 км 10/10 100 м
[]
+16.7 1015.1 1010.2 +16.2 +19.4
07 14.07 СЗ 5-8
{8}
20 км 9/9 150 м
[]
+17.0 1015.5 1010.6
08 14.07 СЗ 5 19 км 9/9 150 м
[]
+17.3 1015.9 1011.0
09 14.07 СЗ 4 15 км 10/10 150 м
[]
+16.3 1016.4 1011.4
10 14.07 СЗ 4-6
{7}
20 км 10/10 210 м
[]
+16.7 1016.6 1011.7
11 14.07 З 5-7
{7}
23 км 10/10 240 м
[]
+16.4 1016.8 1011.8
12 14.07 З 6 26 км 10/10 270 м
[]
+17.0 1016.6 1011.7
13 14.07 З 5 29 км 10/10 360 м
[]
+16.9 1016.8 1011.9
14 14.07 З 5-8
{8}
30 км 9/9 540 м
[]
+17.0 1016.7 1011.8
15 14.07 З 6 35 км 9/9 750 м
[]
+17.1 1016.8 1011.9
16 14.07 З 6-9
{9}
40 км ясно +17.0 1016.3 1011.4
17 14.07 З 6-8
{9}
55 км 3/3 420 м
[]
+17.2 1016.3 1011.4
18 14.07 З 7 45 км 4/4 600 м
[]
+16.0 1016.4 1011.4 +16.0 +18.1
19 14.07 З 6-8
{9}
45 км 9/9 630 м
[]
+15.7 1016.4 1011.4
20 14.07 З 5-7
{9}
40 км 10/10 630 м
[]
+15.4 1016.5 1011.5
21 14.07 З 4 40 км 10/10 660 м
[]
+15.1 1016.4 1011.4
22 14.07 З 3 40 км 10/10 660 м
[]
+14.9 1016.6 1011.6
23 14.07 З 4-5
{5}
40 км 10/10 750 м
[]
+15.0 1016.3 1011.3
00 15.07 З 3 50 км 10/10 600 м
[]
+15.1 1016.2 1011.2
01 15.07 З 4 40 км 9/9 400 м
[]
+15.2 1016.0 1011.0
02 15.07 З 4-6
{6}
35 км в посл. час морось 10/10 750 м
[]
+15.2 1015.6 1010.6
03 15.07 З 5 30 км {морось} 10/10 720 м
[]
+15.0 1015.4 1010.4 0.0
04 15.07 З 5-7
{7}
35 км 10/10 800 м
[]
+14.8 1015.2 1010.2
05 15.07 ЮЗ 5 17 км слаб. морось {дождь} 10/10 270 м
[]
+14.6 1015.0 1010.0
06 15.07 ЮЗ 5 13 км слаб. морось {дождь} 10/10 100 м
[]
+14.2 1014.9 1009.9 0.2
07 15.07 З 5 22 км в посл. час дождь {морось} 10/10 210 м
[]
+14.2 1014.8 1009.8
08 15.07 З 6-8
{9}
29 км в посл. час морось 10/10 480 м
[]
+14.2 1014.9 1009.9
09 15.07 З 7 35 км {дождь, морось} 10/10 600 м
[]
+14.6 1014.9 1009.9 0.1
10 15.07 З 8-11
{11}
30 км 10/10 600 м
[]
+15.0 1014.9 1009.9
11 15.07 З 9-12
{12}
45 км 10/10 720 м
[]
+15.3 1014.8 1009.8
12 15.07 З 9 30 км {дождь, морось} 10/10 600 м
[]
+15.9 1014.5 1009.5 0.1
13 15.07 З 10 45 км 10/10 630 м
[]
+15.5 1014.4 1009.4
14 15.07 ЮЗ 8 40 км 10/10 700 м
[]
+15.2 1014.2 1009.2
15 15.07 З 10 35 км 10/10 660 м
[]
+16.6 1013.7 1008.8
16 15.07 З 10-15
{15}
40 км 10/10 1050 м
[]
+15.7 1013.4 1008.4
17 15.07 З 9 30 км 10/10 700 м
[]
+15.5 1013.1 1008.1
18 15.07 З 9 35 км 9/9 600 м
[]
+15.4 1012.9 1007.9 +14.1 +16.6
19 15.07 З 8-11
{13}
30 км 10/10 1110 м
[]
+15.1 1012.6 1007.6
20 15.07 З 9-12
{12}
28 км 10/10 1110 м
[]
+15.4 1012.4 1007.4
21 15.07 З 7 28 км 10/10 1140 м
[]
+15.4 1012.0 1007.0
22 15.07 З 9 27 км 10/10 840 м
[]
+15.6 1011.7 1006.8
23 15.07 З 8 25 км в посл. час дождь {морось} 10/10 900 м
[]
+15.3 1011.5 1006.5
00 16.07 З 8 21 км в посл. час морось {дождь} 10/10 600 м
[]
+15.3 1011.1 1006.2 0.0
01 16.07 З 8 17 км 10/10 800 м
[]
+15.7 1010.9 1006.0
02 16.07 СЗ 6 28 км в посл. час дождь {морось} 9/9 480 м
[]
+15.5 1011.0 1006.1
03 16.07 СЗ 7 30 км {дождь, морось} 9/9 480 м
[]
+15.0 1011.2 1006.2 0.0
04 16.07 СЗ 6-9
{10}
35 км 3/3 480 м
[]
+15.1 1011.5 1006.5
05 16.07 СЗ 5 30 км 8/8 450 м
[]
+15.2 1011.5 1006.5
06 16.07 СЗ 5 35 км {дождь, морось} 9/9 300 м
[]
+15.6 1011.4 1006.5 0.0
07 16.07 З 6 35 км 10/10 900 м
[]
+16.1 1011.5 1006.6
08 16.07 З 8 19 км 9/9 180 м
[]
+15.7 1011.6 1006.7
09 16.07 З 9 21 км 9/9 270 м
[]
+16.1 1011.6 1006.7
10 16.07 З 8 30 км 10/10 270 м
[]
+15.4 1012.0 1007.0
11 16.07 З 7 55 км в посл. час морось 10/10 270 м
[]
+15.0 1012.2 1007.2
12 16.07 З 8 50 км {морось} 8/8 1000 м
[]
+16.5 1011.8 1006.9 0.0
13 16.07 З 8-10
{10}
55 км 4/4 1380 м
[]
+17.2 1012.0 1007.1
14 16.07 З 9-11
{11}
50 км ясно +17.1 1012.0 1007.1
15 16.07 З 9-12
{12}
65 км ясно +17.4 1012.0 1007.1
17 16.07 З 8-11
{12}
35 км ясно +17.8 1012.0 1007.1
18 16.07 З 8 40 км ясно +17.2 1012.1 1007.2 +14.8 +18.4
19 16.07 З 7-10
{11}
35 км ясно +16.7 1012.3 1007.4
20 16.07 СЗ 6-11
{11}
60 км ясно +16.8 1012.6 1007.7
21 16.07 СЗ 6 65 км 1/0
[]
+16.5 1012.9 1008.0
22 16.07 СЗ 6-9
{10}
60 км ясно +16.2 1012.9 1008.0
23 16.07 СЗ 6 55 км 8/0
[]
+15.9 1013.0 1008.1
00 17.07 СЗ 5 50 км 3/0
[]
+15.7 1013.1 1008.1
01 17.07 СЗ 5 45 км 9/0
[]
+15.6 1013.2 1008.2
02 17.07 СЗ 5 40 км 8/0
[]
+15.4 1013.1 1008.1
03 17.07 СЗ 4 50 км 10/0
[]
+15.4 1013.1 1008.1
04 17.07 СЗ 4 50 км 9/0
[]
+15.6 1013.4 1008.4
05 17.07 СЗ 3 50 км 9/9 1500 м
[]
+16.4 1013.4 1008.5
06 17.07 СЗ 3 45 км 10/10 300 м
[]
+17.3 1013.5 1008.6 +15.4 +17.4
08 17.07 С 2 50 км 8/8 420 м
[]
+18.9 1014.0 1009.1
09 17.07 С 2 60 км 9/0
[]
+18.9 1014.2 1009.3
10 17.07 СЗ 3 65 км 4/0
[]
+17.8 1014.3 1009.4
11 17.07 С 3-5
{5}
55 км ясно +18.3 1014.5 1009.6
12 17.07 СЗ 3 65 км 10/0
[]
+18.3 1014.6 1009.7
13 17.07 СЗ 2-4
{5}
50 км 6/0
[]
+18.7 1014.3 1009.4
14 17.07 СЗ 2 >70 км 6/0
[]
+18.7 1014.3 1009.4
15 17.07 З 5 55 км 10/0
[]
+18.7 1014.3 1009.4

 

Местоположение метеостанции Аркона (Германия): широта 54.68 долгота 13.43 высота над уровнем моря 41 м.

В архиве по умолчанию представлена погода в Арконе за последнюю неделю. Архивные данные за месяц целиком и за предыдущие месяцы, начиная с января 2011 года, Вы можете получить, выбрав интересующий диапазон дат из раскрывающегося списка и нажав кнопку "Ввод!".


*Определитесь, кто Вы:
робот инопланетянин человек

Внимание! Время в таблицах - всемирное. Для получения местного времени необходимо прибавить поправку, которая равна 1 ч.

Смотрите также архив погоды в соседних городах и на ближайших метеорологических станциях:

Погода в Путбусе (Германия) (35 км)
Погода в Барте (Германия) (57 км)
Погода в Грайфсвальдер-Ойе (Германия) (57 км)
Погода в Грайфсвальде (Германия) (65 км)
Погода в Виндебаеке (Дания) (83 км)
Погода в Фальстербу АМС (Швеция) (87 км)
Погода в Фальстербу (Швеция) (87 км)
Погода в Рынге (Швеция) (88 км)
Погода в Гедсер Одде (Дания) (95 км)
Погода в Рённе (Дания) (95 км)

Пояснения к столбцам:

Ветер - указаны скорость ветра в м/с - средняя за 10 мин, порывы в срок и между сроками (в фигурных скобках) и направление, откуда дует ветер: С - северный, СВ - северо-восточный, В - восточный, ЮВ - юго-восточный, Ю - южный, ЮЗ - юго-западный, З - западный, СЗ - северо-западный.
Видимость - горизонтальная дальность видимости в метрах или километрах. При видимости от 1 до 10 км при отсутствии осадков обычно наблюдается дымка, при ухудшении видимости до 1 км и менее - туман. В сухую погоду видимость может ухудшаться дымом, пылью или мглою.
Явления - указаны атмосферные явления, наблюдавшиеся в срок или в последний час перед сроком; фигурными скобками обозначены явления, наблюдавшиеся между сроками (за 1-3 часа до срока); квадратными скобками обозначены град или гололедные отложения с указанием их диаметра в мм.
Облачность - указаны через наклонную черту общая и нижняя облачность в баллах и высота нижней границы облаков в метрах; квадратными скобками обозначены формы облаков: Ci - перистые, Cs - перисто-слоистые, Cc - перисто-кучевые, Ac - высококучевые, As - высокослоистые, Sc - слоисто-кучевые, Ns - слоисто-дождевые, Cu - кучевые, Cb - кучево-дождевые. Подробнее классификацию облаков см. в Атласе облаков (PDF).
T - Температура воздуха - температура, измеренная на высоте 2 м над землей.
Td - Температура точки росы - температура, при понижении до которой содержащийся в воздухе водяной пар достигнет насыщения.
f - Относительная влажность воздуха - влажноcть воздуха, измеренная на высоте 2 м над землей.
Te - Эффективная температура - температура, которую ощущает одетый по сезону человек в тени. Характеристика душности погоды. При расчете учитывается влияние влажности воздуха и скорости ветра на теплоощущения человека.
Tes - Эффективная температура на солнце - температура, которую ощущает человек, с поправкой на солнечный нагрев. Характеристика знойности погоды. Зависит от высоты солнца над горизонтом, облачности и скорости ветра. Ночью, в пасмурную погоду, а также при ветре 12 м/с и более поправка равна нулю.
P - Атмосферное давление - приведенное к уровню моря атмосферное давление.
Po - Атмосферное давление - измеренное на уровне метеостанции атмосферное давление.
Tmin - Минимальная температура - минимум температуры воздуха на высоте 2 м над землей.
Tmax - Максимальная температура - максимум температуры воздуха на высоте 2 м над землей.
R - Количество осадков - Количество выпавших осадков за период времени, мм. При наведении курсора мыши на число - период времени, за который выпало указанное количество осадков.
R24 - Количество осадков - Количество выпавших осадков за 24 часа, мм.
S - Снежный покров - Высота снежного покрова, см. При наведении курсора мыши на число - состояние снежного покрова и степень покрытия местности в баллах.